This is the latest recevied weather packets stored in our database for station/object HI3LT-13. If no packets are shown the sender has not sent any weather packets the latest 10 day(s).
| Time | Temp. | Humidity | Pressure | Rain* | Wind** | Luminosity | Snow |
|---|---|---|---|---|---|---|---|
| 1788035590 | 35.56° C | 52% | 1013 hPa | 0 mm | - | - | - |
| 1788034990 | 33.89° C | 55% | 1013 hPa | 0 mm | - | - | - |
| 1788034389 | 35.56° C | 51% | 1013 hPa | 0 mm | - | - | - |
| 1788033788 | 34.44° C | 55% | 1013 hPa | 0 mm | - | - | - |
| 1788033188 | 34.44° C | 56% | 1013 hPa | 0 mm | - | - | - |
| 1788032587 | 34.44° C | 57% | 1013 hPa | 0 mm | - | - | - |
| 1788031986 | 36.11° C | 60% | 1013 hPa | 0 mm | - | - | - |
| 1788031386 | 36.67° C | 63% | 1013 hPa | 0 mm | - | - | - |
| 1788030785 | 37.22° C | 67% | 1013 hPa | 0 mm | - | - | - |
| 1788030185 | 35.56° C | 65% | 1013 hPa | 0 mm | - | - | - |
| 1788029584 | 35.56° C | 65% | 1013 hPa | 0 mm | - | - | - |
| 1788028984 | 35.56° C | 65% | 1013 hPa | 0 mm | - | - | - |
| 1788028383 | 35.56° C | 65% | 1013 hPa | 0 mm | - | - | - |
| 1788027782 | 35.56° C | 65% | 1014 hPa | 0 mm | - | - | - |
| 1788027182 | 37.22° C | 67% | 1014 hPa | 0 mm | - | - | - |
| 1788026581 | 37.22° C | 67% | 1014 hPa | 0 mm | - | - | - |
| 1788025980 | 35.56° C | 65% | 1014 hPa | 0 mm | - | - | - |
| 1788025380 | 35.56° C | 65% | 1014 hPa | 0 mm | - | - | - |
| 1788024779 | 35.56° C | 65% | 1015 hPa | 0 mm | - | - | - |
| 1788024178 | 35.56° C | 65% | 1015 hPa | 0 mm | - | - | - |
| 1788023578 | 37.22° C | 67% | 1015 hPa | 0 mm | - | - | - |
| 1788022977 | 37.22° C | 67% | 1015 hPa | 0 mm | - | - | - |
| 1788022376 | 35° C | 67% | 1015 hPa | 0 mm | - | - | - |
| 1788021775 | 35.56° C | 65% | 1015 hPa | 0 mm | - | - | - |
| 1788021174 | 32.22° C | 67% | 1015 hPa | 0 mm | - | - | - |
* Rain latest hour (hover to see other rain measurements)
** Current wind speed in m/s (hover to see current wind gust speed)